Regional Weather Roundup
Issued by NWS

Home | Current Version | Previous Version | Graphics & Text | Print | Product List | Glossary On
Versions: 1 2 3 4 5 6 7 8 9 10 11 12 13 14 15 16 17 18 19 20 21 22 23 24 25 26 27 28 29 30 31 32 33 34 35 36 37 38 39 40 41 42 43 44 45 46 47 48 49 50
000
ASUS43 KMKX 292110
RWRWI

WISCONSIN REGIONAL WEATHER ROUNDUP
NATIONAL WEATHER SERVICE MILWAUKEE/SULLIVAN WI
400 PM CDT SUN MAR 29 2015

NOTE: "FAIR" INDICATES FEW OR NO CLOUDS BELOW 12,000 FEET WITH NO
SIGNIFICANT WEATHER AND/OR OBSTRUCTIONS TO VISIBILITY.

WIZ001-002-006>008-014>016-023>028-292200-
NORTHWEST WISCONSIN

CITY           SKY/WX    TMP DP  RH WIND       PRES   REMARKS
SUPERIOR ARPT  PTSUNNY   44  33  66 NW26G35   29.68R
ASHLAND        CLOUDY    41  36  82 NW15G23   29.60R
HAYWARD        CLOUDY    39  33  79 NW12G24   29.64R WCI  32
SIREN          CLOUDY    45  32  59 NW23G32   29.70R
CUMBERLAND     CLOUDY    43  32  65 NW21G31   29.68R
RICE LAKE      CLOUDY    41  34  74 NW16G32   29.69R
CHETEK         CLOUDY    41  35  79 NW14G32   29.68R
LADYSMITH      CLOUDY    39  36  88 W24G32    29.63R WCI  28
EAU CLAIRE     CLOUDY    45  37  73 NW20G32   29.68R
MENOMONIE      PTSUNNY   48  34  58 W30G39    29.68R
NEW RICHMOND   MOSUNNY   50  36  57 NW20G26   29.71R
OSCEOLA        MOSUNNY   52  34  50 N15G25    29.74R
$$

WIZ003>005-009-010-017-018-292200-
NORTH CENTRAL WISCONSIN

CITY           SKY/WX    TMP DP  RH WIND       PRES   REMARKS
MANITOWISH WTR LGT SNOW  33  33  99 NW15      29.51R WCI  23
ARBOR VITAE    LGT SNOW  37  35  93 NW12G23   29.50R WCI  29
WOODRUFF       LGT SNOW  37  35  93 NW12G23   29.50R WCI  29
RHINELANDER    LGT SNOW  34  32  92 W17       29.50R FOG     WCI  23
EAGLE RIVER    LGT SNOW  33  31  90 W13G20    29.47R WCI  24
LAND O LAKES   LGT SNOW  34  32  92 W9G20     29.46S WCI  27
PHILLIPS       CLOUDY    34  32  92 NW14G20   29.56R WCI  25
TOMAHAWK       LGT RAIN  34  32  92 W17G30    29.54R WCI  24
MEDFORD        CLOUDY    36  33  90 NW18G29   29.58R WCI  25
MERRILL        DRIZZLE   37  35  95 W15G21    29.53R WCI  28
$$

WIZ029-030-035-036-043>047-292200-
CENTRAL WISCONSIN

CITY           SKY/WX    TMP DP  RH WIND       PRES   REMARKS
WAUSAU         LGT RAIN  39  37  92 W18G25    29.52R WCI  30
MOSINEE        CLOUDY    36  36 100 W5G22     29.55R FOG     WCI  32
MARSHFIELD     LGT RAIN  40  35  83 NW25G38   29.61R WCI  29
STEVENS POINT  DRIZZLE   37  36  96 W12G17    29.56R WCI  29
WAUPACA        CLOUDY    40  36  86 SW15      29.56S FOG     WCI  31
WAUTOMA        LGT RAIN  37  37 100 SW13      29.60R FOG     WCI  29
WISC RAPIDS    LGT RAIN  41  37  86 W16G28    29.59R
CAMP DOUGLAS   CLOUDY    43  43 100 W26G36    29.62R
$$

WIZ011>013-019>022-031-037>040-048>050-292200-
NORTHEAST WISCONSIN

CITY           SKY/WX    TMP DP  RH WIND       PRES   REMARKS
ANTIGO         LGT SNOW  33  32  99 W8        29.50R WCI  25
SHAWANO        DRIZZLE   37  35  90 SW10      29.54S WCI  30
OCONTO         CLOUDY    34  34 100 SW13      29.54F WCI  25
STURGEON BAY   CLOUDY    34  30  86 SW17G24   29.56F WCI  23
GREEN BAY      CLOUDY    36  33  89 SW14G22   29.56F FOG     WCI  27
MANITOWOC      CLOUDY    37  34  89 SW16G24   29.59F WCI  28
APPLETON       CLOUDY    36  34  93 SW18G25   29.57F WCI  25
CLINTONVILLE   DRIZZLE   36  36 100 SW15G22   29.54F WCI  26
OSHKOSH        CLOUDY    36  32  85 SW18G26   29.58F FOG     WCI  26
$$

WIZ032>034-041-042-053>061-292200-
SOUTHWEST WISCONSIN

CITY           SKY/WX    TMP DP  RH WIND       PRES   REMARKS
LA CROSSE      CLOUDY    46  36  68 NW21G31   29.72R
SPARTA         CLOUDY    44  35  72 NW22G33   29.70R
VIROQUA        CLOUDY    41  36  81 NW21G31   29.70R
BOSCOBEL       CLOUDY    48  36  63 W13G35    29.74R
PRAIRIE DU CHI CLOUDY    45  34  66 W20G29    29.77R
PLATTEVILLE    CLOUDY    47  41  79 W24G31    29.73R
$$

WIZ056-057-062-063-064-067-068-292200-
SOUTH CENTRAL WISCONSIN

CITY           SKY/WX    TMP DP  RH WIND       PRES   REMARKS
REEDSBURG      CLOUDY    42  40  92 W10G18    29.64R
BARABOO/DELLS  CLOUDY    39  37  91 SW14      29.63R FOG     WCI  31
LONE ROCK      CLOUDY    47  37  68 W28G43    29.68R
MINERAL POINT  CLOUDY    46  37  71 W22G35    29.70R
MADISON        CLOUDY    40  35  83 S10G18    29.66F WCI  33
MIDDLETON      CLOUDY    43  38  83 SW13      29.66S
WATERTOWN      CLOUDY    37  36  93 S21G29    29.65F WCI  27
MONROE         CLOUDY    43  39  87 SW21G29   29.68F
JANESVILLE     CLOUDY    43  37  81 S17G25    29.70F
$$

WIZ051-052-058>065-066-070>072-292200-
SOUTHEAST WISCONSIN

CITY           SKY/WX    TMP DP  RH WIND       PRES   REMARKS
MILWAUKEE      CLOUDY    39  29  67 SW26G35   29.71F WCI  28
WAUKESHA       CLOUDY    36  30  80 S17G35    29.70F WCI  25
MILWAUKEE/TIMM CLOUDY    37  30  75 SW17G35   29.71F WCI  28
RACINE         CLOUDY    40  30  67 SW18G29   29.74F WCI  31
BURLINGTON     PTSUNNY   38  32  79 S22G31    29.72F WCI  27
KENOSHA        CLOUDY    39  31  72 SW18G31   29.74F WCI  30
FOND DU LAC    LGT RAIN  36  32  85 SW20G31   29.61F FOG     WCI  25
SHEBOYGAN      CLOUDY    37  32  82 SW24G33   29.62F WCI  26
WEST BEND      CLOUDY    36  32  87 SW15G25   29.64F WCI  26
JUNEAU         DRIZZLE   36  33  90 S20G25    29.66F WCI  25
$$

LSZ147-162-292200-
LAKE SUPERIOR

STATION/POSITION TIME  TEMP    WIND        PRES    WAVE
                       AIR SEA DIR/SP/G            HT/PER
                 (UTC) (F)     (DEG/KT/KT) (MB)    (FT/S)
DEVILS ISLAND    2100   38     290/ 20/ 22 1002.0R
PORT WING        2000   38     290/ 18/ 24 1002.0R
SAXON HARBOR     2040   38     270/ 11/ 24 1001.4R
$$

LMZ867-665-643>646-292200-
LAKE MICHIGAN

STATION/POSITION TIME  TEMP    WIND        PRES    WAVE
                       AIR SEA DIR/SP/G            HT/PER
                 (UTC) (F)     (DEG/KT/KT) (MB)    (FT/S)
KEWAUNEE LAKESHO 2000   35     210/ 16/ 23 1001.9
SHEBOYGAN LAKESH 2100   37     210/ 26/ 29 1003.8F
PORT WASHINGTON  2000   37     230/ 12/ 23 1006.4F
MILWAUKEE LAKESH 2000   37     220/ 23/ 29   N/A
KENOSHA   LAKESH 2100   41     220/ 17/ 28 1007.5F
$$

TC  - TEMPERATURE IN CELSIUS
VSB - VISIBILITY IN STATUTE MILES
WCI - WIND CHILL INDEX
HX  - HEAT INDEX



USA.gov is the U.S. government's official web portal to all federal, state and local government web resources and services.